Location: Kuppenheim
(48.8299°N, 8.2568°E)
Time: 02:53:40
(UTC+00:00)

Cosmos 2237 Rocket - Visible Passes

Search period start: 23 October 2021 00:00
Search period end: 02 November 2021 00:00
Orbit: 833 x 851 km, 71.0° (Epoch: 22 October)

Date Brightness Start Highest point End Pass type
(mag) Time Alt. Az. Time Alt. Az. Time Alt. Az.
23 Oct 4.7 03:42:32 10° N 03:46:13 17° NE 03:49:54 10° ENE visible
23 Oct 2.7 05:25:45 10° NNW 05:31:27 66° ENE 05:37:05 10° SE visible
24 Oct 4.7 03:27:42 10° N 03:31:18 17° NE 03:34:52 10° ENE visible
24 Oct 2.7 05:10:53 10° NNW 05:16:34 63° ENE 05:22:10 10° SE visible
25 Oct 4.7 03:12:52 10° N 03:16:22 16° NE 03:19:51 10° ENE visible
25 Oct 2.8 04:56:01 10° NNW 05:01:40 61° ENE 05:07:16 10° SE visible
26 Oct 4.8 02:58:02 10° N 03:01:26 16° NE 03:04:49 10° ENE visible
26 Oct 2.8 04:41:09 10° NNW 04:46:47 58° ENE 04:52:22 10° SE visible
27 Oct 4.8 02:43:12 10° N 02:46:30 15° NNE 02:49:47 10° ENE visible
27 Oct 2.9 04:26:17 10° NNW 04:31:54 56° ENE 04:37:27 10° SE visible
28 Oct 4.8 02:28:22 10° N 02:31:34 15° NNE 02:34:46 10° ENE visible
28 Oct 2.9 04:11:25 10° NNW 04:17:01 54° NE 04:22:33 10° SE visible
29 Oct 4.8 02:13:39 10° N 02:16:38 15° NNE 02:19:43 10° ENE visible
29 Oct 3.0 03:56:33 10° NNW 04:02:07 52° NE 04:07:38 10° SE visible
29 Oct 4.4 18:51:52 10° S 18:52:07 11° S 18:52:07 11° S visible
30 Oct 4.8 01:59:45 12° N 02:01:41 14° NNE 02:04:40 10° ENE visible
30 Oct 3.0 03:41:40 10° NNW 03:47:13 50° NE 03:52:42 10° SE visible
30 Oct 3.0 05:26:08 10° NW 05:31:04 31° WSW 05:35:57 10° SSW visible
30 Oct 3.7 18:37:02 10° S 18:39:07 22° S 18:39:07 22° S visible
31 Oct 4.8 01:46:01 13° NNE 01:46:45 14° NNE 01:49:36 10° ENE visible
31 Oct 3.1 03:27:54 16° NNW 03:32:20 48° NE 03:37:46 10° SE visible
31 Oct 2.9 05:11:13 10° NW 05:16:13 33° WSW 05:21:10 10° SSW visible
31 Oct 2.9 18:22:13 10° S 18:26:03 36° SSE 18:26:03 36° SSE visible
31 Oct 4.5 20:06:29 10° WSW 20:07:57 17° WSW 20:07:57 17° WSW visible
01 Nov 4.9 01:32:27 13° NE 01:32:27 13° NE 01:34:32 10° ENE visible
01 Nov 3.1 03:14:20 24° N 03:17:25 46° NE 03:22:51 10° SE visible
01 Nov 2.8 04:56:18 10° NW 05:01:21 34° WSW 05:06:22 10° S visible
01 Nov 2.5 18:07:24 10° S 18:12:44 42° ESE 18:12:50 42° ESE visible
01 Nov 3.9 19:51:32 10° WSW 19:54:44 29° W 19:54:44 29° W visible
